* Astronomy

Members Login
Post Info TOPIC: Comet C/2010 FB87 (WISE-GARRADD)


L

Posts: 131433
Date:
RE: Comet C/2010 FB87 (WISE-GARRADD)
Permalink  
 


Orbital elements:
C/2010 FB87 (WISE-Garradd)
Epoch 2010 Nov. 20.0 TT = JDT 2455520.5
T 2010 Nov. 7.37121 TT MPC
q 2.8427934 (2000.0) P Q
z +0.0032469 Peri. 265.01879 -0.30182660 -0.02453945
+/-0.0000403 Node 89.89913 +0.29849243 +0.94697497
e 0.9907697 Incl. 107.62693 -0.90542972 +0.32036890

MPEC 2010 - M40


__________________


L

Posts: 131433
Date:
Permalink  
 

Comet C/2010 FB87 (WISE-Garradd) makes is closest approach to the Earth (2.566 AU) on the 9th June, 2010.

__________________


L

Posts: 131433
Date:
Permalink  
 

Orbital elements:
C/2010 FB87 (WISE-Garradd)
T 2010 Nov. 7.3957 TT MPC
q 2.842599 (2000.0) P Q
z +0.003339 Peri. 265.0242 -0.3018046 -0.0244232
Node 89.8942 +0.2986094 +0.9469491
e 0.990508 Incl. 107.6250 -0.9053985 +0.3204544
From 43 observations 2010 Mar. 28-May 15.

MPEC 2010 - K16


__________________


L

Posts: 131433
Date:
Permalink  
 

Orbital elements:
C/2010 FB87 (WISE-Garradd)
T 2010 Nov. 7.3698 TT MPC
q 2.842856 (2000.0) P Q
z +0.003300 Peri. 265.0146 -0.3017866 -0.0244702
Node 89.8941 +0.2984539 +0.9469990
e 0.990619 Incl. 107.6242 -0.9054558 +0.3203031
From 37 observations 2010 Mar. 28-May 12.

MPEC 2010 - J84


__________________


L

Posts: 131433
Date:
Permalink  
 

Comet C/2010 FB87 (WISE-GARRADD) was discovered by J. Garradd (Siding Spring Survey) and the WISE satellite on the 28th March, 2010 .
The preliminary orbital elements of the comet  indicate a perihelion passage on the 6th November, 2010, at a distance of 2.84 AU from the Sun.

__________________


L

Posts: 131433
Date:
Permalink  
 

Orbital elements:
C/2010 FB87 (WISE-Garradd)
T 2010 Nov. 6.444 TT MPC
q 2.84781 (2000.0) P Q
Peri. 264.805 -0.301775 -0.026029
Node 89.920 +0.294852 +0.948072
e 1.0 Incl. 107.631 -0.906639 +0.316990
From 30 observations 2010 Mar. 28-Apr. 24.

MPEC 2010 - H48


__________________
Page 1 of 1  sorted by
Quick Reply

Please log in to post quick replies.



Create your own FREE Forum
Report Abuse
Powered by ActiveBoard